Date,TemperatureHighF,TemperatureAvgF,TemperatureLowF,DewpointHighF,DewpointAvgF,DewpointLowF,HumidityHigh,HumidityAvg,HumidityLow,PressureMaxIn,PressureMinIn,WindSpeedMaxMPH,WindSpeedAvgMPH,GustSpeedMaxMPH,PrecipitationSumIn
2013-1-1,80,74,68,64,61,58,72,65,58,30.14,30.01,17,5,17,0.00
2013-1-2,80,72,64,68,63,58,82,75,66,30.02,29.94,11,2,11,0.00
2013-1-3,81,74,68,69,66,62,82,76,65,30.08,29.98,12,3,12,0.00
2013-1-4,80,73,68,70,66,62,83,79,71,30.17,30.05,8,2,8,0.00
2013-1-5,74,70,68,68,65,62,85,83,78,30.17,30.08,8,1,8,0.31
2013-1-6,81,74,67,71,67,62,86,80,71,30.13,30.01,14,4,14,0.00
2013-1-7,76,72,69,68,66,64,84,82,76,30.08,30.01,8,1,8,0.11
2013-1-8,82,76,72,72,69,66,85,79,71,30.12,30.00,13,4,13,0.25
2013-1-9,84,78,75,72,69,67,82,74,67,30.22,30.06,14,7,14,0.00
2013-1-10,84,77,74,69,66,64,77,69,58,30.22,30.13,16,7,16,0.00
2013-1-11,83,77,74,70,67,65,77,72,65,30.19,30.10,13,6,13,0.00
2013-1-12,82,77,74,68,66,64,75,69,61,30.11,30.05,12,4,12,0.00
2013-1-13,83,76,73,68,65,62,75,68,61,30.08,30.01,12,3,12,0.00
2013-1-14,82,76,72,67,64,61,73,67,58,30.12,30.06,13,5,13,0.00
2013-1-15,83,76,73,68,65,62,76,68,60,30.08,30.00,10,5,10,0.00
2013-1-16,82,76,69,69,66,61,81,72,62,30.06,29.97,12,4,12,0.00
2013-1-17,80,72,64,71,65,53,85,78,68,30.03,29.93,15,3,15,0.31
2013-1-18,71,65,56,60,54,46,71,66,60,30.16,30.02,12,4,12,0.00
2013-1-19,73,71,68,67,63,59,85,77,67,30.11,30.00,9,2,9,0.34
2013-1-20,78,72,66,68,65,61,86,79,71,30.04,29.96,9,2,9,0.25
2013-1-21,80,72,68,70,66,62,85,81,70,30.01,29.90,9,2,9,0.39
2013-1-22,76,70,64,63,59,53,83,69,57,30.16,29.94,15,4,15,0.00
2013-1-23,76,69,63,60,56,52,72,62,51,30.22,30.14,10,3,10,0.00
2013-1-24,75,67,61,56,53,48,75,62,48,30.21,30.14,9,2,9,0.00
2013-1-25,75,68,61,62,56,51,72,66,56,30.30,30.06,8,1,8,0.00
2013-1-26,76,69,61,62,58,53,80,69,55,30.18,30.11,8,2,8,0.00
2013-1-27,79,74,68,62,61,57,72,65,55,30.21,30.11,9,3,9,0.00
2013-1-28,82,76,72,67,64,60,75,67,59,30.24,30.15,12,6,12,0.00
2013-1-29,82,76,73,70,66,64,79,73,65,30.15,30.07,14,6,14,0.00
2013-1-30,81,76,72,68,65,62,80,70,63,30.08,29.93,16,7,16,0.00
2013-1-31,73,69,61,68,59,43,85,69,51,30.12,29.90,9,2,9,0.00